Вернуться в каталог

SL-16 DEB

АктивенLEO
NORAD 32006·DEBRIS·🇷🇺 Russia

Запущен Jun 10, 2004 с Baikonur Cosmodrome

Loading…

Ближайшие Пролёты (ближайшие 24 часа)

TLE

УстаревающийSource: Space-Track

Эпоха: Sep 11, 2026, 10:02 UTC

1 32006U 04021J   26254.41867434  .00001152  00000-0  84808-3 0  9994
2 32006  71.0944 162.4754 0167830 165.9239 194.6636 13.91132477668493

Отслеживайте SL-16 DEB в реальном времени с AllMySat

Download on the App Store